JUPITER 3 (ECHOSTAR 24)

Last updated on Tue Sep 22 2026 00:03:16 GMT+0000 (Coordinated Universal Time)

1 57479U 23108A 26264.26406790 .00000000 00000+0 00000+0 0 9998 2 57479 0.0222 158.9444 0000974 22.9815 178.0738 1.00269499 11615
UTC large
Height (km)
Speed (km/s)
/
Latitude / Longitude
Inclination (degrees)
Orbital Period (minutes)
Azimuth
Elevation
Range (km)
Doppler Factor

Next 0 passes for location: London (51.5072 / 0.1276)

No passes found over London.
JUPITER 3 (ECHOSTAR 24)